{"data":{"norad_id":60095,"intl_designator":"2024-117E","name":"STARLINK-32028","alt_names":[],"object_type":"PAYLOAD","status":"ACTIVE","operator":null,"country":"US","launch_date":"2024-06-23","launch_site_code":"AFETR","launch_vehicle":null,"mission":null,"orbit_class":"UNKNOWN","rcs_meters":null,"size_class":null,"mass_kg":null,"dimensions":null,"purposes":["comms"],"wikipedia_slug":null,"has_3d_model":false,"image_url":null,"decayed_at":null,"tle_current":{"epoch":"2026-05-25T02:11:47.226048Z","epoch_age_seconds":63096,"freshness":"FRESH","line1":"1 60095U 24117E   26145.09151882  .00001180  00000+0  51969-4 0  9990","line2":"2 60095  53.1621  42.2655 0001136 102.2370 257.8758 15.30194730108587","mean_motion":15.3019473,"eccentricity":0.0001136,"inclination_deg":53.1621,"raan_deg":42.2655,"arg_perigee_deg":102.237,"mean_anomaly_deg":257.8758,"bstar":5.1969e-5,"rev_number":10858,"period_min":94.105669805829,"perigee_km":474.45226215194,"apogee_km":476.00934731718,"semimajor_km":6853.3678047346,"source":"CELESTRAK","updated_at":"2026-05-25T13:38:19.160443Z"}}}